Estación de Calama Rural INIA

Ultimos registro cada 15 minutos 33
Estación Fecha / Hora Temperatura Humedad Lluvia Velocidad Dirección Radiación Presion
33 Calama Rural INIA 03-09-2026 08:00 9,6 16,4 0 2,9 64 202,7 783,4
32 Calama Rural INIA 03-09-2026 07:45 7,7 16,8 0 3,9 73 158,2 783,5
31 Calama Rural INIA 03-09-2026 07:30 6,8 19,5 0 3,5 67 112,3 783,4
30 Calama Rural INIA 03-09-2026 07:15 5,9 21,7 0 3,2 62 55,8 783,2
29 Calama Rural INIA 03-09-2026 07:00 5,2 22,5 0 3,2 61 16 782,8
28 Calama Rural INIA 03-09-2026 06:45 4,2 25,2 0 3,2 69 9,4 782,8
27 Calama Rural INIA 03-09-2026 06:30 4,6 25,9 0 3,7 76 8 782,6
26 Calama Rural INIA 03-09-2026 06:15 4 26,1 0 3,8 77 8 782,6
25 Calama Rural INIA 03-09-2026 06:00 3,4 27,1 0 3,8 82 8 782,4
24 Calama Rural INIA 03-09-2026 05:45 3,7 29,1 0 3,6 81 8,2 782,5
23 Calama Rural INIA 03-09-2026 05:30 4,8 27,5 0 3 80 8,3 782,4
22 Calama Rural INIA 03-09-2026 05:15 5,3 25,6 0 2,8 76 7,9 782,5
21 Calama Rural INIA 03-09-2026 05:00 5,1 26,4 0 2 80 8 782,4
20 Calama Rural INIA 03-09-2026 04:45 6,8 27 0 2,7 77 8 782,4
19 Calama Rural INIA 03-09-2026 04:30 7,3 23,2 0 2,1 66 7,9 782,4
18 Calama Rural INIA 03-09-2026 04:15 7,5 25,3 0 2 62 7,9 782,5
17 Calama Rural INIA 03-09-2026 04:00 8,1 24,4 0 2 62 8 782,7
16 Calama Rural INIA 03-09-2026 03:45 8,2 25,4 0 1,7 59 8 782,7
15 Calama Rural INIA 03-09-2026 03:30 8,1 25,8 0 2,2 65 7,8 782,7
14 Calama Rural INIA 03-09-2026 03:15 8,4 26 0 1,9 63 8,2 782,7
13 Calama Rural INIA 03-09-2026 03:00 7,8 26,2 0 0,5 61 7,9 782,8
12 Calama Rural INIA 03-09-2026 02:45 7,4 29,2 0 0 0 7,9 782,8
11 Calama Rural INIA 03-09-2026 02:30 7,6 28,4 0 0 71 7,8 782,7
10 Calama Rural INIA 03-09-2026 02:15 8,1 27,4 0 0,5 46 7,9 783
9 Calama Rural INIA 03-09-2026 02:00 8,6 27,1 0 0,8 53 7,9 783
8 Calama Rural INIA 03-09-2026 01:45 8,9 27,6 0 1,1 54 7,8 783,1
7 Calama Rural INIA 03-09-2026 01:30 8,9 28,3 0 1,3 54 7,9 783,3
6 Calama Rural INIA 03-09-2026 01:15 8,4 29 0 1,8 62 7,9 783,3
5 Calama Rural INIA 03-09-2026 01:00 8 29 0 2,9 70 8,1 783,2
4 Calama Rural INIA 03-09-2026 00:45 8,4 30,2 0 3,1 75 8,1 783,3
3 Calama Rural INIA 03-09-2026 00:30 9 28,4 0 3,2 78 7,9 783,3
2 Calama Rural INIA 03-09-2026 00:15 9 28,5 0 2,8 75 8,4 783,4
1 Calama Rural INIA 03-09-2026 00:00 9,3 27,4 0 2,7 80 8,5 783,3